Retour au catalogue

STARLINK-5689

ActifCommunicationsVLEO
NORAD 55474·PAYLOAD·🇺🇸 United States

Lancé Feb 2, 2023 depuis Cape Canaveral Space Force Station

Loading…

Prochains Passages (prochaines 24 heures)

TLE

FraisSource: CelesTrak SupGP

Époque: Sep 14, 2026, 21:25 UTC

1 55474C 23015AB  26257.89284722 -.00032233  00000+0 -11672-2 0  2570
2 55474  43.0037 351.5493 0001995 273.8670 226.0720 15.27600842    16

Suivez STARLINK-5689 en temps réel avec AllMySat

Download on the App Store